Location: The Saddle
(36.8333°N, 80.3417°W)
Time: 07:59:16
(UTC-05:00)

Vanguard 2 Rocket - Pass Details

Date: 14 December 2023
Orbit: 555 x 3309 km, 32.9° (Epoch: 02 March)

Event Time Altitude Azimuth Distance (km) Brightness Sun altitude
Rises 09:45:06 0° 198° (SSW) 4,034 10.7 20.2°
Reaches altitude 10° 09:48:09 10° 183° (S) 3,424 10.8 20.6°
Maximum altitude 09:55:04 24° 134° (SE) 3,217 12.0 21.4°
Drops below altitude 10° 10:05:07 10° 88° (E) 5,175 11.2 22.5°
Sets 10:11:09 0° 77° (ENE) 6,643 11.5 23.1°
